Preview of NWS' New Version of Forecast
This preview is not operational and should not be used for support decisions.

Regional Weather Roundup (RWR)

Issued by National Weather Service (NWS)

                            
000
ASUS43 KLSX 171007
RWRMO 

WEATHER SUMMARY FOR MISSOURI
NATIONAL WEATHER SERVICE SPRINGFIELD MO
500 AM CDT MON JUN 17 2019

NOTE: "FAIR" INDICATES FEW OR NO CLOUDS BELOW 12,000 FEET WITH NO
       SIGNIFICANT WEATHER AND/OR OBSTRUCTIONS TO VISIBILITY.
       CURRENT SKY AND/OR WEATHER CONDITIONS ARE NOT AVAILABLE FOR
       CHILLICOTHE AND FARMINGTON.

MOZ001>031-035>038-043-044-053-054-171100-
...NORTHERN AND WESTERN MISSOURI...
  
CITY           SKY/WX    TMP DP  RH WIND       PRES   REMARKS
KANSAS CTY INT CLEAR     68  65  90 NE10      29.90S                  
KANSAS C DTWN  PTCLDY    72  65  78 NE7       29.88S                  
LEE'S SUMMIT   CLOUDY    71  66  84 NE7       29.89R                  
ST JOSEPH      CLEAR     68  63  84 NE3       29.92R                  
CHILLICOTHE      N/A     69  64  84 N5        29.93R                  
KIRKSVILLE     MOCLDY    64  62  93 NE7       29.94R FOG              
     
$$
MOZ066>068-077>081-088>096-101>105-171100-
...SOUTHWEST MISSOURI...
  
CITY           SKY/WX    TMP DP  RH WIND       PRES   REMARKS
SPRINGFIELD    MOCLDY    67  65  93 N5        29.87F                  
JOPLIN         HVY RAIN  66  66 100 W12       29.90R FOG              
BRANSON        CLOUDY    68  68 100 CALM      29.89R                  
               
$$
MOZ032>034-039>042-045>050-055>058-069>072-171100-
...CENTRAL MISSOURI...  
  
CITY           SKY/WX    TMP DP  RH WIND       PRES   REMARKS
COLUMBIA       MOCLDY    69  66  90 NE6       29.89R                  
ROLLA          CLEAR     67  65  93 CALM      29.89R                  
SEDALIA        PTCLDY    68  68 100 N3        29.89S                  
WHITEMAN AFB   CLOUDY    70  70 100 CALM      29.84                   
WARRENSBURG    CLOUDY    70  66  88 CALM      29.88S                  
OSAGE BEACH    PTCLDY    67  66  97 CALM      29.89S                  
               
$$
MOZ051-052-059>065-171100-
...EAST CENTRAL MISSOURI...
  
CITY           SKY/WX    TMP DP  RH WIND       PRES   REMARKS
ST LOUIS INTL  MOCLDY    71  67  87 CALM      29.88R                  
SPIRIT OF STL  CLEAR     69  67  93 CALM      29.86S                  
ST CHARLES       N/A    N/A N/A N/A MISG      29.87R                  
                   
$$
MOZ072>076-082>087-097>100-106>115-171100-
...SOUTH CENTRAL AND SOUTHEAST MISSOURI...
  
CITY           SKY/WX    TMP DP  RH WIND       PRES   REMARKS
CAPE GIRARDEAU FAIR      70  67  90 SE3       29.88R                  
FARMINGTON     CLEAR     66  66 100 S3        29.89S                  
POPLAR BLUFF   FAIR      68  68 100 CALM      29.87R                  
WEST PLAINS    FOG       67  65  93 NE5       29.88F VSB 3/4          
                                       
$$